Lid_Strength_Index
7 11 13 10 9 9 9 10 10 8 7 8 9 9 7 6 5 6 5 5 4 4 3 3 2 1 1 1 1 1 1 0 0 1 1 1 1 0 0 -1 -1 -1 -1 -1
11 13 9 7 8 9 10 11 11 8 7 8 9 9 7 6 6 5 6 5 5 4 4 3 3 2 2 2 1 1 1 1 0 0 0 0 0 0 -0 -1 -1 -1 -1 -1
12 10 7 9 10 11 11 12 11 11 9 8 10 11 9 7 6 5 5 5 5 5 5 4 3 3 2 2 2 1 1 1 0 0 0 0 0 0 1 0 0 -0 -1 -1
10 7 8 9 11 10 13 9 10 11 13 16 9 17 10 8 7 6 5 5 5 6 5 5 3 4 2 2 1 1 1 1 1 0 1 1 2 2 1 1 0 -0 -1 -1
11 10 10 11 10 9 12 8 10 10 12 13 13 16 12 8 9 7 6 5 5 5 5 5 5 3 3 2 2 1 1 1 1 1 1 1 2 1 1 1 1 0 -0 -1
9 6 7 9 8 8 7 10 10 11 12 19 14 14 13 10 9 7 6 5 5 4 4 5 5 4 3 2 2 1 1 1 1 1 1 1 2 2 2 1 1 1 0 0
10 10 7 7 10 8 10 13 18 19 20 20 12 14 13 8 7 6 6 5 5 4 4 4 4 5 4 3 3 2 2 2 1 1 1 1 1 1 2 1 1 1 1 1
15 16 10 8 9 11 12 13 18 21 20 18 12 17 12 7 6 6 5 5 5 4 4 4 4 4 4 4 3 2 2 2 1 1 1 1 1 1 1 1 1 1 1 1
14 13 7 8 7 9 12 15 11 16 16 19 17 13 9 7 7 6 6 5 5 4 4 4 4 4 5 4 3 3 2 2 1 1 1 1 1 1 1 1 1 1 0 0
9 14 9 9 8 8 10 9 16 16 21 22 18 15 13 10 9 7 7 6 5 5 4 4 4 4 4 4 4 3 4 3 2 1 1 1 1 1 1 1 1 1 0 0
8 10 12 10 13 12 12 14 14 14 16 19 20 15 8 8 7 7 6 6 5 5 4 4 5 5 5 4 5 5 5 4 3 2 1 1 1 1 1 1 1 1 0 0
9 11 15 14 9 8 9 11 12 17 18 16 17 15 7 7 7 7 7 7 7 7 7 7 7 8 7 7 7 8 7 6 5 3 2 1 1 1 1 1 1 1 1 0
9 13 17 16 13 10 11 11 10 11 12 16 19 15 7 7 6 6 6 6 6 7 7 7 7 8 9 9 9 8 9 7 6 4 3 2 2 2 2 1 1 1 1 1
7 11 14 16 13 11 13 11 11 12 16 15 15 13 9 8 8 7 7 6 6 5 5 6 7 7 9 9 9 8 8 7 5 4 3 3 3 3 2 2 1 1 1 1
9 14 12 11 10 10 11 12 11 13 12 15 12 11 9 8 8 8 7 6 7 7 6 6 6 7 8 9 9 9 8 8 6 6 4 4 3 3 3 3 3 3 3 3
9 14 12 14 11 10 13 11 10 11 11 11 10 11 7 7 7 7 7 7 7 7 6 6 6 7 9 9 9 9 9 8 7 5 5 6 7 8 7 7 7 7 7 7
12 13 14 16 12 12 16 12 11 10 9 9 12 9 7 7 7 7 6 6 6 5 5 5 5 5 5 6 8 8 8 8 8 7 7 8 9 10 9 8 9 10 8 8
12 12 13 16 14 20 11 7 8 9 9 8 8 7 7 7 6 5 5 5 5 5 4 4 5 5 5 6 7 7 8 9 8 8 8 10 11 12 12 11 11 10 9 9
8 12 15 16 17 13 11 9 9 10 10 7 8 7 7 6 6 6 5 5 6 4 4 4 3 5 4 6 7 7 8 8 10 11 11 11 11 12 12 12 11 11 12 12
9 10 13 15 17 18 11 8 6 7 13 8 7 7 7 7 11 8 5 5 5 5 4 4 4 4 4 6 7 8 9 9 10 11 11 11 12 12 12 12 13 14 13 15
14 13 15 15 16 13 8 7 6 15 13 7 7 7 7 8 7 5 5 5 5 6 6 6 5 6 6 8 8 8 9 9 9 11 11 12 12 12 12 14 14 14 15 15
13 14 15 14 16 17 7 8 10 8 6 6 6 6 7 6 6 5 6 6 6 8 8 8 8 9 9 9 9 9 9 9 10 11 11 12 13 13 13 14 15 16 16 15
14 10 13 12 12 7 6 7 5 5 6 6 7 6 7 7 7 7 8 8 9 9 9 10 10 10 10 10 10 10 10 11 11 12 13 13 14 14 14 14 14 14 14 13
9 7 10 10 8 7 6 5 7 7 8 8 9 9 9 9 9 10 10 11 10 10 11 11 11 11 11 11 12 10 11 11 12 13 13 13 13 13 13 13 12 12 12 13
9 8 10 10 8 9 9 11 12 10 12 13 13 12 11 11 11 11 11 11 12 12 11 12 13 13 12 11 12 12 12 12 12 12 13 13 13 13 13 12 12 12 12 11
16 18 13 13 17 17 11 13 15 15 15 15 15 15 14 12 13 13 13 12 13 12 12 12 13 14 13 13 12 13 13 12 12 13 13 13 13 13 12 12 13 11 11 11